Location: Gaiola
(44.3333°N, 7.4000°E)
Time: 11:24:37
(UTC+00:00)

Daily predictions for brighter satellites

Satellite Brightness Start Highest point End
(mag) Time Altitude Azimuth Time Altitude Azimuth Time Altitude Azimuth
Cosmos 1725 Rocket 4.2 18:03:10 10° SSW 18:09:20 79° W 18:15:34 10° N
BREEZE-M DEB (TANK) 4.1 18:07:42 10° WNW 18:09:59 36° N 18:14:04 10° ENE
SJ-6B 3.4 18:07:21 10° SE 18:10:35 31° ENE 18:13:48 10° N
NOSS 2-1 (D) 4.0 18:07:08 10° NNW 18:10:47 44° NE 18:15:43 10° ESE
Meteor 1-18 Rocket 4.3 18:06:12 10° N 18:12:08 69° ENE 18:17:56 10° SSE
Cosmos 2333 Rocket 3.8 18:07:07 10° SW 18:12:31 40° NW 18:17:57 10° NNE
USA 308 0.2 18:12:51 10° WNW 18:13:43 44° SSW 18:15:04 10° SE
ATLAS CENTAUR R/B 2.8 18:12:39 10° SE 18:14:19 13° ESE 18:16:01 10° E
Cosmos 1340 2.3 18:11:06 10° SSW 18:14:20 83° W 18:17:37 10° N
SeaSat 1 3.4 18:10:14 10° NNE 18:15:02 54° WNW 18:19:47 10° SW
Iridium 4 Rocket 3.2 18:11:18 10° N 18:15:19 46° E 18:19:20 10° SSE
Meteor 1-4 Rocket 3.3 18:13:29 10° NNE 18:15:31 19° ENE 18:17:33 10° ESE
Cosmos 1151 Rocket 3.1 18:11:52 10° N 18:16:08 81° W 18:20:22 10° S
ARGOS Delta rocket 4.5 18:15:48 10° SE 18:20:26 38° ENE 18:24:52 10° N
Cosmos 1937 Rocket 4.4 18:18:03 10° NNW 18:23:11 53° WSW 18:28:19 10° S
NOSS 0 Rocket 4.2 18:19:53 10° S 18:25:45 45° ESE 18:31:40 10° NE
USA 276 2.9 18:25:28 10° NW 18:28:09 34° NNE 18:30:24 12° E
Cosmos 1943 Rocket 3.1 18:23:24 10° N 18:28:10 29° NE 18:32:34 12° ESE
ACS3 Solar Sail 3.0 18:24:49 10° ESE 18:29:52 25° ENE 18:34:55 10° N
Cosmos 2322 3.8 18:25:23 10° SSW 18:31:02 86° WNW 18:36:44 10° NNE
Cosmos 2233 Rocket 4.2 18:25:59 10° SSW 18:32:06 78° W 18:38:19 10° N
Cosmos 1400 Rocket 2.6 18:28:32 10° N 18:32:22 74° E 18:36:07 10° SSE
BlueWalker 3 1.9 18:30:54 10° WNW 18:34:40 84° SSW 18:37:58 13° SE
Cosmos 1726 2.2 18:32:11 10° SSW 18:34:54 54° W 18:37:39 10° N
Cosmos 1066 Rocket 4.3 18:29:06 10° N 18:35:00 80° E 18:40:48 10° SSE
Resurs 1-3 3.5 18:31:05 10° SSE 18:35:25 81° ENE 18:39:46 10° N
SAR-Lupe-2 3.8 18:39:52 10° S 18:43:25 71° WSW 18:47:00 10° NNW
Cosmos 1315 Rocket 4.2 18:45:01 10° NNE 18:48:04 21° ENE 18:49:14 18° E
Cosmos 1464 Rocket 4.3 18:42:12 10° SSE 18:48:09 46° E 18:54:10 10° NNE
Meteor PRIRODA 3.3 18:44:55 10° SSE 18:48:12 88° WSW 18:51:31 10° NNW
SL-16 R/B 4.2 18:53:32 10° ENE 18:53:32 10° ENE 18:53:36 10° ENE
Cosmos 1125 Rocket 4.0 18:47:10 10° N 18:52:03 39° ENE 18:55:24 18° ESE
Cosmos 1536 3.0 18:49:23 10° SSE 18:53:00 44° E 18:56:40 10° NNE
Cosmos 1842 2.9 18:49:44 10° N 18:53:21 70° E 18:56:56 10° SSE
Okean 3 Rocket 3.7 18:49:06 10° S 18:53:25 51° E 18:57:45 10° NNE
COSMOS 2428 3.1 18:49:11 10° SSW 18:54:52 70° WNW 19:00:36 10° NNE
USA 59 Rocket 0.2 18:51:02 10° NW 18:55:01 83° SW 19:00:05 12° SSE
Cosmos 1707 2.4 18:53:38 10° N 18:57:09 62° E 19:00:08 14° SSE
Cosmos 1515 Rocket 3.8 18:53:14 10° N 18:57:26 48° ENE 19:00:44 16° SSE
Okean O Rocket 2.4 18:57:42 21° ESE 18:59:48 33° ENE 19:03:46 10° N
Feng Yun 1-1 Rocket 4.5 18:55:08 10° SE 19:00:42 57° ENE 19:06:28 10° N
CZ-4B DEB 4.4 19:02:05 10° S 19:07:36 73° WSW 19:13:07 10° NNW
USA 306 4.2 19:05:16 10° W 19:08:01 27° NNW 19:11:11 10° NE
Cosmos 2278 Rocket 2.1 19:02:25 10° NNW 19:08:07 82° ENE 19:12:39 16° SSE
CZ-4 R/B 1.4 19:04:55 10° S 19:08:42 73° WSW 19:12:36 10° NNW
Meteor 2-9 Rocket 4.4 19:04:20 10° SSE 19:09:22 44° E 19:14:30 10° NNE
Cosmos 2034 Rocket 4.2 19:04:34 10° SSE 19:10:25 45° E 19:16:14 10° NNE
Meteor 1-13 Rocket 4.4 19:05:01 10° N 19:10:48 57° ENE 19:14:59 18° SSE
CZ-4B R/B 3.1 19:06:53 11° SSE 19:12:05 72° ENE 19:17:27 10° N
Cosmos 1500 Rocket 4.1 19:10:44 27° SE 19:12:16 35° E 19:16:15 10° NNE
Cosmos 1072 Rocket 4.5 19:07:31 10° S 19:13:55 78° E 19:20:19 10° N
Resurs 01 Rocket 1.5 19:10:19 13° SSE 19:14:13 83° ENE 19:18:40 10° N
NOSS 3-3 (C) 3.9 19:10:03 10° S 19:15:00 44° ESE 19:20:42 10° NE
NOSS 2-1 (C) 4.3 19:11:26 10° NW 19:15:22 54° SW 19:19:46 15° SSE
Meteor 2-10 4.1 19:10:41 10° S 19:16:11 66° E 19:21:51 10° NNE
GEOS 3 Rocket 3.6 19:13:40 20° SE 19:17:20 83° SW 19:22:33 10° NW
Meteor 2-17 Rocket 4.5 19:11:20 10° N 19:17:26 84° W 19:23:29 10° S
Helios 1A 3.8 19:13:37 10° N 19:17:34 51° WNW 19:21:29 10° SSW
USA 290 2.9 19:15:09 10° NNW 19:18:22 53° WSW 19:20:16 22° S
Cosmos 1743 Rocket 4.3 19:19:19 30° E 19:19:19 30° E 19:22:49 10° NNE
USA 186 1.9 19:17:45 23° S 19:19:35 72° WSW 19:22:49 10° NNW
PAYLOAD B 4.4 19:15:08 10° S 19:20:42 74° WSW 19:26:21 10° NNW
MOS 1-B 4.3 19:17:39 19° SSE 19:21:56 69° ENE 19:27:42 10° N
SPOT 5 3.5 19:22:14 30° E 19:22:49 31° ENE 19:26:46 10° N
Okean-O 3.3 19:23:04 32° E 19:23:35 33° ENE 19:27:32 10° N
Cosmos 2208 Rocket 4.0 19:20:13 10° S 19:25:20 56° ESE 19:30:33 10° NNE
Cosmos 1408 Rocket 3.4 19:22:58 11° S 19:27:10 69° E 19:31:33 10° NNE
CZ-4B R/B 3.9 19:25:11 10° S 19:28:50 43° W 19:32:41 10° NNW
NOSS 3-3 (A) 3.6 19:23:56 10° SSW 19:29:06 60° ESE 19:35:07 10° NE
ISS -3.3 19:26:18 10° WSW 19:29:36 59° NNW 19:30:43 36° NE
Cosmos 2237 Rocket 2.2 19:28:14 10° SSW 19:33:50 82° WNW 19:39:30 10° NNE
CSL-04 Rocket 3.7 19:31:44 17° S 19:35:54 80° WSW 19:41:15 10° NNW
Aureole 3 Rocket 3.8 19:29:10 10° S 19:36:13 63° E 19:41:16 10° NNE
Cosmos 1607 4.3 19:30:54 10° S 19:36:50 40° ESE 19:42:47 10° NE
Meteor 1-11 Rocket 3.8 19:39:38 10° SSW 19:45:16 78° WNW 19:50:50 10° N
Lacrosse 4 Rocket 4.4 19:44:30 10° W 19:46:01 12° WSW 19:47:30 10° SW
MOS 1 Rocket 3.9 19:45:39 42° E 19:46:02 43° ENE 19:51:00 10° N
IKONOS-2 4.5 19:43:18 10° N 19:47:28 78° WNW 19:50:24 19° SSW
Cosmos 158 Rocket 4.0 19:45:52 10° SSW 19:50:44 73° WNW 19:55:36 10° NNE
ATLAS CENTAUR R/B 1.8 19:47:43 10° SW 19:51:11 52° NW 19:54:51 10° NNE
Cosmos 1805 Rocket 3.3 19:52:47 68° S 19:53:18 85° E 19:57:39 10° N
Cosmos 1428 Rocket 4.4 19:53:24 10° N 19:59:33 87° W 20:02:18 35° S
SL-24 R/B 4.2 20:01:56 72° ESE 20:02:11 74° E 20:06:59 10° N
Cosmos 2369 Rocket 3.1 19:59:58 10° N 20:05:07 33° NE 20:05:11 33° NE
Sich 1 3.4 20:07:33 47° SW 20:08:31 61° W 20:12:48 10° N
Meteor 1-21 4.1 20:04:06 10° N 20:09:52 71° ENE 20:10:23 66° ESE
Cosmos 1943 Rocket 2.9 20:06:50 10° NW 20:12:05 46° WSW 20:14:06 32° SSW
BlueWalker 3 4.5 20:10:27 10° W 20:12:09 13° SW 20:12:13 13° SW
Terra 2.6 20:13:52 40° NNE 20:13:52 40° NNE 20:17:19 10° N
ACS3 Solar Sail 2.3 20:09:36 25° S 20:13:24 62° W 20:19:47 10° NNW
ERS-1 Rocket 3.2 20:14:03 56° NE 20:14:03 56° NE 20:18:28 10° N
Cosmos 2298 Rocket 4.0 20:10:40 10° NNW 20:15:58 78° WSW 20:16:27 71° SSW
Cosmos 2150 Rocket 3.9 20:12:30 10° NNW 20:17:40 75° WSW 20:17:56 73° SW
USA 32 4.3 20:12:56 10° N 20:18:08 64° W 20:19:24 48° SSW
Ariane Rocket 3.9 20:24:21 36° NNE 20:24:21 36° NNE 20:27:53 10° N
Cosmos 1315 Rocket 4.4 20:20:40 10° NNW 20:24:10 30° W 20:24:27 30° WSW
Cosmos 2026 Rocket 4.0 20:18:10 10° N 20:24:23 76° W 20:25:51 54° SSW
Cosmos 1092 Rocket 4.0 20:18:33 10° N 20:24:54 78° W 20:26:28 53° SSW
IRS-1A Rocket 4.1 20:26:28 82° SE 20:26:43 87° ENE 20:32:27 10° NNW
Meteor 2-12 Rocket 4.3 20:22:01 10° N 20:28:14 87° W 20:28:56 72° S
SL-16 R/B 2.4 20:35:16 62° NNE 20:35:16 62° NNE 20:39:56 10° NNE
Okean O Rocket 3.4 20:35:02 23° WSW 20:36:04 26° W 20:39:47 10° NW
Cosmos 1634 Rocket 4.1 20:36:31 54° SSW 20:38:00 75° W 20:44:22 10° N
Cosmos 1656 Rocket 3.9 20:36:25 10° NNW 20:41:19 66° N 20:41:19 66° N
IRS-1C Rocket 4.4 20:45:02 64° NW 20:45:02 64° NW 20:49:39 10° NNW
USA 59 Rocket 3.1 20:43:09 10° W 20:44:28 11° WSW 20:45:52 10° SW
SPOT 5 4.5 21:01:22 27° W 21:01:22 27° W 21:04:42 10° NW
USA 267 3.8 21:08:22 46° NE 21:08:44 47° NNE 21:14:55 10° NW
NOSS 3-4 (A) 4.4 21:39:11 10° NW 21:44:37 51° WNW 21:44:37 51° WNW
NOSS 3-4 (C) 4.4 21:39:18 10° NW 21:44:43 51° WNW 21:44:43 51° WNW
Cosmos 2369 Rocket 3.9 21:43:52 10° NW 21:46:58 29° WNW 21:46:58 29° WNW
Terra 4.4 21:52:34 15° WNW 21:52:34 15° WNW 21:53:58 10° NW
ATLAS 2AS CENTAUR R/B 4.2 22:31:30 10° NNW 22:36:31 29° NNE 22:36:31 29° NNE
Cosmos 2344 4.4 23:21:09 10° NW 23:27:14 57° NW 23:27:14 57° NW
